Date,Time,Wetness (Wet Dry or Ice),Wind Speed (m/s),Temperature (C),Humidity (%),Pressure (mb),Radiation (W/m^2)
2019-06-12,04:45:00,DRY,4.85,9.05,51.0,772.00,1.5
2019-06-12,04:50:00,DRY,4.10,9.20,49.7,772.00,1.3
2019-06-12,04:55:00,DRY,3.75,9.10,50.0,772.00,1.4
2019-06-12,05:00:00,DRY,3.67,9.20,49.7,772.00,1.4
2019-06-12,05:05:00,DRY,3.55,9.20,49.5,772.00,1.4
2019-06-12,05:10:00,DRY,3.77,9.20,49.7,772.00,1.4
2019-06-12,05:15:00,DRY,4.60,9.20,49.0,772.00,1.3
2019-06-12,05:20:00,DRY,4.27,9.30,47.3,772.00,0.8
2019-06-12,05:25:00,DRY,4.70,9.40,47.0,772.00,1.2
2019-06-12,05:30:00,DRY,4.00,9.40,44.7,772.00,1.1
2019-06-12,05:35:00,DRY,3.90,9.20,45.0,772.00,1.0
2019-06-12,05:40:00,DRY,4.37,9.30,44.0,772.00,0.9
2019-06-12,05:45:00,DRY,4.15,9.30,42.5,772.00,1.2
2019-06-12,05:50:00,DRY,4.47,9.47,40.7,772.00,1.3
2019-06-12,05:55:00,DRY,5.35,9.45,41.0,772.00,1.5
2019-06-12,06:00:00,DRY,3.47,9.63,41.3,772.00,2.2
2019-06-12,06:05:00,DRY,5.80,9.60,41.0,772.00,5.8
2019-06-12,06:10:00,DRY,4.40,9.53,40.0,772.00,9.7
2019-06-12,06:15:00,DRY,4.90,9.55,37.5,772.00,12.8
2019-06-12,06:20:00,DRY,4.93,9.60,41.3,772.00,25.5
2019-06-12,06:25:00,DRY,4.55,9.75,41.5,772.00,48.0
2019-06-12,06:30:00,DRY,4.33,9.90,40.7,772.00,49.9
2019-06-12,06:35:00,DRY,3.50,9.90,35.5,772.00,70.5
2019-06-12,06:40:00,DRY,3.97,9.87,37.3,772.00,72.8
2019-06-12,06:45:00,DRY,4.75,9.85,39.5,772.00,107.2
2019-06-12,06:50:00,DRY,3.87,10.20,38.3,772.00,181.9
2019-06-12,06:55:00,DRY,3.20,10.40,38.5,772.00,175.5
2019-06-12,07:00:00,DRY,3.30,10.33,37.7,772.00,179.8
2019-06-12,07:05:00,DRY,3.75,10.35,37.0,772.00,129.7
2019-06-12,07:10:00,DRY,3.53,10.47,38.3,772.00,208.1
2019-06-12,07:15:00,DRY,3.20,10.30,39.0,772.00,126.0
2019-06-12,07:20:00,DRY,3.03,9.87,41.3,772.00,45.7
2019-06-12,07:25:00,DRY,3.80,9.55,40.5,772.00,63.0
2019-06-12,07:30:00,DRY,4.30,9.63,42.3,772.00,180.7
2019-06-12,07:35:00,DRY,3.70,10.20,41.0,772.00,396.2
2019-06-12,07:40:00,DRY,3.30,10.87,40.7,772.00,471.0
2019-06-12,07:45:00,DRY,3.95,11.30,39.0,772.00,454.9
2019-06-12,07:50:00,DRY,2.27,11.57,40.3,772.00,349.8
2019-06-12,07:55:00,DRY,1.80,11.10,40.5,772.00,112.2
2019-06-12,08:00:00,DRY,3.00,10.77,41.0,772.00,94.1
2019-06-12,08:05:00,DRY,3.00,10.60,41.5,772.00,128.1
2019-06-12,08:10:00,DRY,2.67,11.13,42.0,772.00,353.5
2019-06-12,08:15:00,DRY,3.45,11.70,40.5,772.00,493.4
2019-06-12,08:20:00,DRY,3.90,12.17,38.7,772.00,502.9
2019-06-12,08:25:00,DRY,4.20,12.45,37.5,772.00,526.9
2019-06-12,08:30:00,DRY,4.90,12.37,37.7,772.00,555.8
2019-06-12,08:35:00,DRY,4.85,12.60,37.5,772.00,571.4
2019-06-12,08:40:00,DRY,4.33,12.47,38.0,772.00,511.7
2019-06-12,08:45:00,DRY,5.30,12.85,38.0,772.00,569.0
2019-06-12,08:50:00,DRY,5.20,12.70,38.7,772.00,623.0
2019-06-12,08:55:00,DRY,4.20,13.00,38.5,772.00,641.2
2019-06-12,09:00:00,DRY,4.97,13.23,36.0,772.00,607.0
2019-06-12,09:05:00,DRY,5.60,13.25,35.0,772.00,675.7
2019-06-12,09:10:00,DRY,6.07,13.23,34.7,772.00,688.1
2019-06-12,09:15:00,DRY,5.90,13.05,34.0,772.00,706.4
2019-06-12,09:20:00,DRY,4.37,13.37,34.3,772.00,725.2
2019-06-12,09:25:00,DRY,3.95,13.00,38.5,772.00,738.0
2019-06-12,09:30:00,DRY,3.87,12.80,43.0,772.00,738.9
2019-06-12,09:35:00,DRY,3.95,12.85,42.5,772.00,782.5
2019-06-12,09:40:00,DRY,3.60,12.80,41.3,772.00,806.9
2019-06-12,09:45:00,DRY,3.15,12.90,39.5,772.00,853.2
2019-06-12,09:50:00,DRY,3.37,13.03,39.0,772.00,939.9
2019-06-12,09:55:00,DRY,3.90,13.25,46.5,772.00,1008.5
2019-06-12,10:00:00,DRY,3.50,12.50,47.7,772.00,1037.2
2019-06-12,10:05:00,DRY,3.85,12.75,45.5,772.00,945.6
2019-06-12,10:10:00,DRY,3.00,12.53,42.3,772.00,637.3
2019-06-12,10:15:00,DRY,3.00,11.85,45.5,772.00,525.2
2019-06-12,10:20:00,DRY,2.73,12.30,43.3,772.00,553.3
2019-06-12,10:25:00,DRY,2.75,12.70,41.5,772.00,600.4
2019-06-12,10:30:00,DRY,2.27,12.43,44.3,772.00,614.7
2019-06-12,10:35:00,DRY,2.25,12.70,40.5,772.00,1022.0
2019-06-12,10:40:00,DRY,2.40,12.67,40.3,772.00,979.8
2019-06-12,10:45:00,DRY,2.80,13.30,39.0,772.00,984.2
2019-06-12,10:50:00,DRY,3.50,13.57,39.0,772.00,990.5
2019-06-12,10:55:00,DRY,2.80,13.85,38.0,772.00,1001.0
2019-06-12,11:00:00,DRY,2.73,13.70,40.0,772.00,1007.8
2019-06-12,11:05:00,DRY,3.30,13.85,37.5,772.00,1016.3
2019-06-12,11:10:00,DRY,2.37,13.47,41.7,772.00,1026.4
2019-06-12,11:15:00,DRY,3.40,14.45,39.5,772.00,1034.2
2019-06-12,11:20:00,DRY,4.00,13.87,45.0,772.00,1043.0
2019-06-12,11:25:00,DRY,3.35,14.30,44.0,772.00,1049.2
2019-06-12,11:30:00,DRY,3.07,14.07,53.0,772.00,1059.6
2019-06-12,11:35:00,DRY,3.95,12.75,52.0,772.50,1065.2
2019-06-12,11:40:00,DRY,3.33,13.30,52.3,772.00,1072.4
2019-06-12,11:45:00,DRY,3.10,13.80,52.0,772.00,1079.8
2019-06-12,11:50:00,DRY,3.93,13.47,54.0,772.00,1086.3
2019-06-12,11:55:00,DRY,2.70,12.65,56.0,772.00,1091.4
2019-06-12,12:00:00,DRY,3.43,12.67,46.7,772.00,1098.0
2019-06-12,12:05:00,DRY,3.55,12.85,57.5,772.00,1104.0
2019-06-12,12:10:00,DRY,4.20,13.10,58.0,772.00,1112.4
2019-06-12,12:15:00,DRY,3.55,13.25,55.0,772.00,1097.9
2019-06-12,12:20:00,DRY,3.83,13.03,54.7,772.00,1123.7
2019-06-12,12:25:00,DRY,3.20,13.40,53.0,772.00,1119.5
2019-06-12,12:30:00,DRY,4.60,13.47,56.7,772.00,1123.6
2019-06-12,12:35:00,DRY,4.50,13.50,53.5,772.00,1123.5
2019-06-12,12:40:00,DRY,4.33,12.73,62.0,772.00,1125.6
2019-06-12,12:45:00,DRY,3.95,12.35,62.0,772.00,1128.8
2019-06-12,12:50:00,DRY,4.20,12.93,60.0,772.00,1128.5
2019-06-12,12:55:00,DRY,3.60,12.75,61.0,772.00,1128.3
2019-06-12,13:00:00,DRY,3.73,12.63,60.7,772.00,1128.7
2019-06-12,13:05:00,DRY,4.70,12.85,58.0,772.00,1130.8
2019-06-12,13:10:00,DRY,4.10,12.80,55.3,772.00,1129.8
2019-06-12,13:15:00,DRY,4.35,12.10,56.5,772.00,1131.1
2019-06-12,13:20:00,DRY,4.70,12.33,56.0,772.00,1130.1
2019-06-12,13:25:00,DRY,3.55,12.05,58.0,772.00,1131.9
2019-06-12,13:30:00,DRY,4.70,12.40,55.0,772.00,1139.3
2019-06-12,13:35:00,DRY,3.50,13.20,54.0,772.00,1157.9
2019-06-12,13:40:00,DRY,3.47,12.83,54.7,772.00,1167.9
2019-06-12,13:45:00,DRY,3.90,12.95,56.0,772.00,1169.0
2019-06-12,13:50:00,DRY,4.23,12.60,58.3,772.00,1159.8
2019-06-12,13:55:00,DRY,3.65,12.65,59.0,772.00,1149.5
2019-06-12,14:00:00,DRY,4.03,13.17,56.3,772.00,1146.5
2019-06-12,14:05:00,DRY,5.60,12.35,58.0,772.00,1135.0
2019-06-12,14:10:00,DRY,4.90,12.93,56.3,772.00,1120.9
2019-06-12,14:15:00,DRY,4.45,13.05,56.0,772.00,1109.2
2019-06-12,14:20:00,DRY,5.37,12.90,54.3,772.00,1100.6
2019-06-12,14:25:00,DRY,4.75,12.50,54.5,772.00,1094.8
2019-06-12,14:30:00,DRY,4.90,12.80,54.3,772.00,1086.2
2019-06-12,14:35:00,DRY,4.65,13.00,54.0,772.00,1083.9
2019-06-12,14:40:00,DRY,5.33,12.87,53.3,772.00,1076.3
2019-06-12,14:45:00,DRY,4.00,12.45,53.5,772.00,1074.0
2019-06-12,14:50:00,DRY,3.90,12.00,54.3,772.00,1069.7
2019-06-12,14:55:00,DRY,4.80,12.30,54.0,772.00,1060.8
2019-06-12,15:00:00,DRY,4.57,12.13,55.0,772.00,1055.0
2019-06-12,15:05:00,DRY,4.95,12.20,54.0,772.00,1048.2
2019-06-12,15:10:00,DRY,4.70,12.37,54.0,772.00,1038.7
2019-06-12,15:15:00,DRY,5.05,12.85,53.5,772.00,1043.7
2019-06-12,15:20:00,DRY,5.10,12.50,53.7,772.00,1043.3
2019-06-12,15:25:00,DRY,4.95,12.50,53.5,772.00,1048.8
2019-06-12,15:30:00,DRY,5.47,12.40,54.7,772.00,1002.2
2019-06-12,15:35:00,DRY,4.85,12.30,54.5,772.00,949.2
2019-06-12,15:40:00,DRY,5.43,11.00,59.7,772.00,540.8
2019-06-12,15:45:00,DRY,5.20,11.25,56.5,772.00,970.1
2019-06-12,15:50:00,DRY,5.83,11.30,57.3,771.67,810.6
2019-06-12,15:55:00,DRY,4.95,11.70,58.0,771.50,775.6
2019-06-12,16:00:00,DRY,4.77,11.77,57.0,771.33,920.7
2019-06-12,16:05:00,DRY,4.35,11.85,58.0,771.50,929.2
2019-06-12,16:10:00,DRY,4.70,11.77,59.0,772.00,917.1
2019-06-12,16:15:00,DRY,5.55,11.40,59.0,772.00,889.0
2019-06-12,16:20:00,DRY,5.50,12.05,58.0,772.00,847.9
2019-06-12,16:25:00,DRY,4.45,11.70,60.0,771.00,837.1
2019-06-12,16:30:00,DRY,5.87,11.50,57.0,771.00,820.4
2019-06-12,16:35:00,DRY,4.40,11.70,58.0,771.00,801.3
2019-06-12,16:40:00,DRY,4.97,11.57,58.0,771.00,785.4
2019-06-12,16:45:00,DRY,4.95,12.35,57.5,771.00,768.3
2019-06-12,16:50:00,DRY,5.03,11.37,61.0,771.00,750.9
2019-06-12,16:55:00,DRY,5.20,10.95,63.0,771.00,734.5
2019-06-12,17:00:00,DRY,5.30,11.80,58.0,771.00,716.4
2019-06-12,17:05:00,DRY,5.15,11.45,58.5,771.00,695.2
2019-06-12,17:10:00,DRY,5.33,11.30,57.7,771.00,677.4
2019-06-12,17:15:00,DRY,6.40,11.00,57.0,771.00,656.1
2019-06-12,17:20:00,DRY,5.77,11.17,55.0,771.00,636.3
2019-06-12,17:25:00,DRY,5.05,11.30,54.0,771.00,616.0
2019-06-12,17:30:00,DRY,5.03,11.07,52.7,771.00,595.6
2019-06-12,17:35:00,DRY,4.90,10.35,56.5,771.00,575.0
2019-06-12,17:40:00,DRY,4.67,11.17,44.0,771.00,556.3
2019-06-12,17:45:00,DRY,4.00,10.85,39.5,771.00,536.3
2019-06-12,17:50:00,DRY,4.60,10.90,42.3,771.00,516.6
2019-06-12,17:55:00,DRY,3.75,10.95,44.5,771.00,498.4
2019-06-12,18:00:00,DRY,4.60,10.87,45.7,771.00,475.7
2019-06-12,18:05:00,DRY,4.85,10.50,42.5,771.00,425.1
2019-06-12,18:10:00,DRY,4.57,10.57,41.7,771.00,392.1
2019-06-12,18:15:00,DRY,3.70,10.20,51.0,771.00,271.1
2019-06-12,18:20:00,DRY,3.37,9.33,54.0,771.00,305.4
2019-06-12,18:25:00,DRY,4.50,9.45,50.0,771.00,363.6
2019-06-12,18:30:00,DRY,5.00,9.03,43.0,771.00,354.5
2019-06-12,18:35:00,DRY,4.25,9.35,49.5,771.00,333.1
2019-06-12,18:40:00,DRY,4.47,9.13,41.3,771.00,311.0
2019-06-12,18:45:00,DRY,3.95,9.25,35.0,771.00,290.9
2019-06-12,18:50:00,DRY,3.50,9.17,37.0,771.00,270.0
2019-06-12,18:55:00,DRY,3.90,9.10,36.0,771.00,250.8
2019-06-12,19:00:00,DRY,4.00,8.70,35.7,771.00,230.7
2019-06-12,19:05:00,DRY,3.65,8.85,33.5,771.00,209.4
2019-06-12,19:10:00,DRY,3.33,8.93,30.0,771.00,192.8
2019-06-12,19:15:00,DRY,2.80,8.65,30.0,771.00,174.2
2019-06-12,19:20:00,DRY,3.43,9.00,27.3,771.00,156.6
2019-06-12,19:25:00,DRY,3.60,9.35,22.5,771.00,139.1
2019-06-12,19:30:00,DRY,2.73,9.00,24.3,771.00,120.0
2019-06-12,19:35:00,DRY,3.35,9.05,25.0,771.00,97.1
2019-06-12,19:40:00,DRY,4.40,9.30,18.0,771.00,75.5
2019-06-12,19:45:00,DRY,4.35,9.75,17.0,771.00,56.1
2019-06-12,19:50:00,DRY,4.37,9.80,14.7,771.00,40.6
2019-06-12,19:55:00,DRY,4.70,9.80,13.5,771.50,26.8
2019-06-12,20:00:00,DRY,4.93,9.87,12.3,771.33,17.6
2019-06-12,20:05:00,DRY,5.05,9.80,12.5,772.00,11.9
2019-06-12,20:10:00,DRY,4.53,9.53,12.7,771.67,8.6
2019-06-12,20:15:00,DRY,5.00,9.35,13.0,771.00,4.7
2019-06-12,20:20:00,DRY,5.67,9.33,14.0,772.00,3.2
2019-06-12,20:25:00,DRY,5.05,9.15,15.0,772.00,2.1
2019-06-12,20:30:00,DRY,4.47,8.90,19.0,772.00,1.5
2019-06-12,20:35:00,DRY,3.95,8.65,25.5,772.00,1.5
2019-06-12,20:40:00,DRY,5.20,8.60,28.7,772.00,1.3
2019-06-12,20:45:00,DRY,4.65,8.35,28.0,772.00,1.1
2019-06-12,20:50:00,DRY,5.50,8.33,26.7,772.00,1.3
2019-06-12,20:55:00,DRY,5.10,8.65,29.0,772.00,1.2
2019-06-12,21:00:00,DRY,5.00,8.70,30.3,772.00,1.6
2019-06-12,21:05:00,DRY,4.55,8.65,32.5,772.00,1.2
2019-06-12,21:10:00,DRY,4.37,8.47,34.0,772.00,1.3
2019-06-12,21:15:00,DRY,4.60,8.45,36.5,772.00,0.6
2019-06-12,21:20:00,DRY,4.53,8.43,35.7,772.00,1.4
2019-06-12,21:25:00,DRY,5.65,8.55,38.0,772.00,1.2
2019-06-12,21:30:00,DRY,5.20,8.67,37.3,772.00,1.4
2019-06-12,21:35:00,DRY,4.20,8.55,37.0,772.00,1.4
2019-06-12,21:40:00,DRY,3.73,8.50,34.0,772.00,1.7
2019-06-12,21:45:00,DRY,3.75,8.40,34.5,772.00,1.5
2019-06-12,21:50:00,DRY,4.33,8.10,36.7,772.00,1.3
2019-06-12,21:55:00,DRY,4.50,8.10,39.0,772.00,1.3
2019-06-12,22:00:00,DRY,4.33,8.20,40.0,772.00,1.2
2019-06-12,22:05:00,DRY,5.45,7.95,43.0,772.00,1.2
2019-06-12,22:10:00,DRY,4.27,7.90,43.0,772.00,1.4
2019-06-12,22:15:00,DRY,4.25,7.95,41.5,772.00,1.1
2019-06-12,22:20:00,DRY,4.23,7.80,41.3,772.00,1.4
2019-06-12,22:25:00,DRY,2.30,7.75,40.0,772.00,1.0
2019-06-12,22:30:00,DRY,3.40,7.60,41.7,772.00,1.3
2019-06-12,22:35:00,DRY,3.80,7.65,43.0,772.00,0.7
2019-06-12,22:40:00,DRY,4.17,7.80,43.0,772.00,1.4
2019-06-12,22:45:00,DRY,4.15,8.00,42.5,772.00,0.9
2019-06-12,22:50:00,DRY,4.43,8.10,41.7,772.00,1.1
2019-06-12,22:55:00,DRY,5.65,8.10,41.5,772.00,1.2
2019-06-12,23:00:00,DRY,4.77,8.30,41.0,772.00,1.3
2019-06-12,23:05:00,DRY,4.65,8.30,41.5,772.00,1.2
2019-06-12,23:10:00,DRY,4.43,8.33,42.3,772.00,1.2
2019-06-12,23:15:00,DRY,4.20,8.40,43.0,772.00,1.3
2019-06-12,23:20:00,DRY,4.73,8.43,42.3,772.00,1.1
2019-06-12,23:25:00,DRY,4.80,8.55,43.5,772.00,1.1
2019-06-12,23:30:00,DRY,5.33,8.57,43.7,772.00,1.2
2019-06-12,23:35:00,DRY,4.55,8.65,44.5,772.00,1.1
2019-06-12,23:40:00,DRY,4.77,8.50,43.0,772.00,1.9
2019-06-12,23:45:00,DRY,4.60,8.30,41.0,772.00,2.2
2019-06-12,23:50:00,DRY,4.93,8.23,42.0,772.00,1.4
2019-06-12,23:55:00,DRY,5.45,8.50,43.5,772.00,1.4
2019-06-13,00:00:00,DRY,5.07,8.50,43.3,772.00,1.2
2019-06-13,00:05:00,DRY,4.65,8.35,43.5,772.00,1.1
2019-06-13,00:10:00,DRY,5.33,8.33,43.3,772.00,1.4
2019-06-13,00:15:00,DRY,4.80,8.50,43.5,772.00,1.2
2019-06-13,00:20:00,DRY,5.80,8.47,42.3,772.00,1.2
2019-06-13,00:25:00,DRY,4.50,8.55,39.5,772.00,1.2
2019-06-13,00:30:00,DRY,5.77,8.40,41.0,772.00,1.3
2019-06-13,00:35:00,DRY,5.35,8.25,42.0,772.00,1.3
2019-06-13,00:40:00,DRY,4.40,8.03,42.3,772.00,0.9
2019-06-13,00:45:00,DRY,5.00,7.75,43.5,772.00,1.2
2019-06-13,00:50:00,DRY,5.13,7.63,42.3,772.00,1.3
2019-06-13,00:55:00,DRY,4.20,7.45,42.0,772.00,1.1
2019-06-13,01:00:00,DRY,4.80,7.37,43.3,772.00,1.5
2019-06-13,01:05:00,DRY,4.30,7.15,44.5,771.50,1.1
2019-06-13,01:10:00,DRY,4.97,7.10,46.3,771.00,1.2
2019-06-13,01:15:00,DRY,4.85,7.15,46.5,771.00,1.1
2019-06-13,01:20:00,DRY,4.73,7.20,48.0,771.00,1.7
2019-06-13,01:25:00,DRY,4.35,7.30,49.0,771.00,1.4
2019-06-13,01:30:00,DRY,4.40,7.37,49.3,771.00,1.3
2019-06-13,01:35:00,DRY,4.90,7.45,51.0,771.00,1.2
2019-06-13,01:40:00,DRY,4.40,7.37,51.3,771.00,1.3
2019-06-13,01:45:00,DRY,4.55,7.45,52.0,771.00,1.3
2019-06-13,01:50:00,DRY,3.97,7.40,51.0,771.00,1.2
2019-06-13,01:55:00,DRY,3.70,7.25,52.0,771.00,1.5
2019-06-13,02:00:00,DRY,3.73,7.17,53.0,771.00,1.4
2019-06-13,02:05:00,DRY,3.55,7.40,52.0,771.00,1.1
2019-06-13,02:10:00,DRY,3.90,7.30,52.3,771.00,1.3
2019-06-13,02:15:00,DRY,4.40,7.35,52.0,771.00,0.7
2019-06-13,02:20:00,DRY,4.53,7.30,52.3,771.00,1.2
2019-06-13,02:25:00,DRY,4.65,7.25,52.5,771.00,1.1
2019-06-13,02:30:00,DRY,4.00,7.13,53.0,771.00,1.1
2019-06-13,02:35:00,DRY,4.50,7.10,52.5,771.00,1.0
2019-06-13,02:40:00,DRY,5.10,7.40,51.0,771.00,1.1
2019-06-13,02:45:00,DRY,4.60,7.55,51.0,771.00,1.1
2019-06-13,02:50:00,DRY,4.50,7.53,51.7,771.00,1.3
2019-06-13,02:55:00,DRY,4.45,7.40,52.5,771.00,1.3
2019-06-13,03:00:00,DRY,4.73,7.40,51.7,771.00,1.2
2019-06-13,03:05:00,DRY,4.55,7.65,49.5,771.00,1.4
2019-06-13,03:10:00,DRY,4.27,7.63,49.0,771.00,1.0
2019-06-13,03:15:00,DRY,4.55,7.55,49.0,771.00,1.2
2019-06-13,03:20:00,DRY,4.53,7.63,43.7,771.00,1.0
2019-06-13,03:25:00,DRY,4.50,7.90,46.5,771.00,1.5
2019-06-13,03:30:00,DRY,3.87,7.70,35.7,771.00,1.4
2019-06-13,03:35:00,DRY,3.50,7.90,25.5,771.00,1.2
2019-06-13,03:40:00,DRY,4.75,8.00,24.5,771.00,1.2
2019-06-13,03:45:00,DRY,4.20,8.10,25.5,771.00,1.2
2019-06-13,03:50:00,DRY,4.37,8.07,26.0,771.00,1.3
2019-06-13,03:55:00,DRY,4.50,8.05,22.5,771.00,1.1
2019-06-13,04:00:00,DRY,4.53,7.73,19.3,771.00,2.4
2019-06-13,04:05:00,DRY,5.25,7.75,22.5,771.00,1.2
2019-06-13,04:10:00,DRY,4.60,7.77,26.7,771.00,1.2
2019-06-13,04:15:00,DRY,4.10,7.95,28.5,771.00,1.3
2019-06-13,04:20:00,DRY,4.70,7.60,25.7,771.00,1.3
2019-06-13,04:25:00,DRY,5.05,7.40,25.5,771.00,1.5
2019-06-13,04:30:00,DRY,5.43,7.57,29.7,771.00,1.1
2019-06-13,04:35:00,DRY,4.75,7.40,27.0,771.00,1.1
2019-06-13,04:40:00,DRY,4.80,7.50,31.0,771.00,1.1
2019-06-13,04:45:00,DRY,4.65,7.35,30.5,771.00,1.1
2019-06-13,04:50:00,DRY,5.50,7.37,36.3,771.00,1.2
2019-06-13,04:55:00,DRY,4.65,7.25,41.5,771.00,1.0
2019-06-13,05:00:00,DRY,5.23,7.13,42.3,771.00,1.8
2019-06-13,05:05:00,DRY,4.90,7.15,42.0,771.00,1.4
2019-06-13,05:10:00,DRY,5.63,7.03,42.3,770.67,1.5
2019-06-13,05:15:00,DRY,5.55,7.10,37.0,771.00,1.3
2019-06-13,05:20:00,DRY,6.20,7.10,42.3,771.00,1.9
2019-06-13,05:25:00,DRY,4.00,7.20,38.0,771.00,0.6
2019-06-13,05:30:00,DRY,4.43,6.80,41.7,771.00,1.1
2019-06-13,05:35:00,DRY,4.35,6.75,40.5,771.00,1.3
2019-06-13,05:40:00,DRY,4.87,6.93,46.0,771.00,1.5
2019-06-13,05:45:00,DRY,4.40,6.90,44.5,771.00,1.3
2019-06-13,05:50:00,DRY,4.23,6.77,47.0,771.00,1.5
2019-06-13,05:55:00,DRY,4.30,6.90,48.5,771.00,1.1
2019-06-13,06:00:00,DRY,5.33,6.80,47.7,771.00,1.6
2019-06-13,06:05:00,DRY,5.10,7.05,47.5,771.00,3.4
2019-06-13,06:10:00,DRY,5.20,7.07,46.7,771.00,5.3
2019-06-13,06:15:00,DRY,6.00,7.25,48.0,771.00,8.2
2019-06-13,06:20:00,DRY,5.27,7.33,47.3,771.00,18.1
2019-06-13,06:25:00,DRY,5.25,7.35,44.5,771.00,34.8
2019-06-13,06:30:00,DRY,5.57,7.40,44.3,771.00,32.8
2019-06-13,06:35:00,DRY,3.40,7.50,44.0,771.00,42.9
2019-06-13,06:40:00,DRY,5.10,7.43,44.7,771.00,95.5
2019-06-13,06:45:00,DRY,5.10,7.70,45.0,771.00,116.2
2019-06-13,06:50:00,DRY,4.47,7.73,45.7,771.00,134.2
2019-06-13,06:55:00,DRY,3.05,7.80,45.5,771.00,152.8
2019-06-13,07:00:00,DRY,4.77,8.00,44.0,771.00,172.4
2019-06-13,07:05:00,DRY,4.50,8.20,42.0,771.00,193.1
2019-06-13,07:10:00,DRY,5.43,8.47,41.0,771.00,212.8
2019-06-13,07:15:00,DRY,5.45,8.45,38.5,771.00,233.8
2019-06-13,07:20:00,DRY,4.90,8.50,37.7,771.00,254.1
2019-06-13,07:25:00,DRY,5.70,8.55,38.0,771.00,275.1
2019-06-13,07:30:00,DRY,5.30,8.73,39.0,771.00,295.6
2019-06-13,07:35:00,DRY,5.35,8.90,38.0,771.00,317.0
2019-06-13,07:40:00,DRY,5.87,8.93,39.3,771.00,338.9
2019-06-13,07:45:00,DRY,5.40,9.15,36.5,771.00,359.8
2019-06-13,07:50:00,DRY,5.20,9.40,33.0,771.00,380.9
2019-06-13,07:55:00,DRY,6.00,9.25,28.5,771.00,401.6
2019-06-13,08:00:00,DRY,5.10,9.57,31.7,771.00,424.1
2019-06-13,08:05:00,DRY,5.80,9.70,37.5,771.00,444.0
2019-06-13,08:10:00,DRY,5.77,9.80,40.7,771.00,464.7
2019-06-13,08:15:00,DRY,5.40,10.00,41.0,771.00,485.2
2019-06-13,08:20:00,DRY,4.87,10.20,39.3,771.00,505.4
2019-06-13,08:25:00,DRY,4.15,9.95,39.0,771.00,525.7
2019-06-13,08:30:00,DRY,5.13,10.00,35.3,771.00,546.4
2019-06-13,08:35:00,DRY,4.15,10.45,33.5,771.00,566.3
2019-06-13,08:40:00,DRY,5.17,10.47,32.3,771.00,587.1
2019-06-13,08:45:00,DRY,5.30,10.40,33.5,771.00,606.7
2019-06-13,08:50:00,DRY,5.57,11.10,31.0,771.00,625.8
2019-06-13,08:55:00,DRY,4.95,10.90,34.0,771.00,645.7
2019-06-13,09:00:00,DRY,5.63,11.20,30.7,771.00,663.8
2019-06-13,09:05:00,DRY,4.00,11.55,31.0,771.00,682.6
2019-06-13,09:10:00,DRY,4.93,10.97,32.7,771.00,701.9
2019-06-13,09:15:00,DRY,3.05,11.30,34.0,771.50,719.3
2019-06-13,09:20:00,DRY,4.13,11.33,34.3,771.67,740.3
2019-06-13,09:25:00,DRY,5.20,10.80,35.5,771.50,758.4
2019-06-13,09:30:00,DRY,4.37,10.83,36.0,772.00,771.5
2019-06-13,09:35:00,DRY,4.35,11.15,30.0,772.00,788.2
2019-06-13,09:40:00,DRY,4.70,11.33,24.7,772.00,805.8
2019-06-13,09:45:00,DRY,6.80,11.20,24.5,771.50,823.6
2019-06-13,09:50:00,DRY,5.30,11.07,24.0,772.00,838.9
2019-06-13,09:55:00,DRY,6.30,11.15,27.5,771.50,851.0
2019-06-13,10:00:00,DRY,5.83,10.70,27.0,772.00,867.5
2019-06-13,10:05:00,DRY,7.05,11.20,25.5,772.00,882.1
2019-06-13,10:10:00,DRY,5.47,10.93,19.3,772.00,896.6
2019-06-13,10:15:00,DRY,4.95,11.40,21.5,772.00,911.0
2019-06-13,10:20:00,DRY,5.73,11.60,20.3,772.00,923.9
2019-06-13,10:25:00,DRY,5.30,11.60,21.5,772.00,938.2
2019-06-13,10:30:00,DRY,6.33,11.67,15.3,772.00,949.3
2019-06-13,10:35:00,DRY,4.90,11.35,16.5,772.00,962.5
2019-06-13,10:40:00,DRY,5.90,11.00,16.7,772.00,973.3
2019-06-13,10:45:00,DRY,4.40,11.20,16.5,772.00,985.2
2019-06-13,10:50:00,DRY,6.30,11.07,15.7,772.00,997.7
2019-06-13,10:55:00,DRY,5.90,11.70,16.5,772.00,1007.0
2019-06-13,11:00:00,DRY,5.50,11.83,18.0,772.00,1017.7
2019-06-13,11:05:00,DRY,5.65,11.80,19.5,772.00,1026.8
2019-06-13,11:10:00,DRY,5.87,11.73,20.0,772.00,1037.8
2019-06-13,11:15:00,DRY,6.90,12.35,16.5,772.00,1046.8
2019-06-13,11:20:00,DRY,4.63,12.30,23.0,772.00,1056.1
2019-06-13,11:25:00,DRY,4.75,12.25,25.0,772.00,1065.5
2019-06-13,11:30:00,DRY,3.93,12.23,25.3,772.00,1072.4
2019-06-13,11:35:00,DRY,4.65,12.60,25.5,772.00,1080.4
2019-06-13,11:40:00,DRY,4.87,13.17,24.0,772.00,1086.0
2019-06-13,11:45:00,DRY,4.15,12.65,21.0,772.00,1093.5
2019-06-13,11:50:00,DRY,5.20,12.80,22.7,772.00,1099.1
2019-06-13,11:55:00,DRY,4.65,12.80,17.0,772.00,1106.7
2019-06-13,12:00:00,DRY,5.07,12.57,17.7,772.00,1111.3
2019-06-13,12:05:00,DRY,4.85,12.25,18.0,772.00,1115.0
2019-06-13,12:10:00,DRY,5.20,12.47,19.7,772.00,1119.7
2019-06-13,12:15:00,DRY,5.50,12.15,20.0,772.00,1123.7
2019-06-13,12:20:00,DRY,3.97,12.73,21.3,772.00,1127.9
2019-06-13,12:25:00,DRY,5.40,13.20,16.0,772.00,1132.8
2019-06-13,12:30:00,DRY,4.33,12.87,23.0,772.00,1135.1
2019-06-13,12:35:00,DRY,4.25,12.95,17.5,772.00,1138.2
2019-06-13,12:40:00,DRY,4.40,13.30,13.3,772.00,1138.8
2019-06-13,12:45:00,DRY,3.95,13.90,19.0,772.00,1141.5
2019-06-13,12:50:00,DRY,3.73,13.27,15.0,772.00,1141.4
2019-06-13,12:55:00,DRY,4.55,13.50,20.5,772.00,1146.8
2019-06-13,13:00:00,DRY,4.57,13.43,11.3,772.00,1144.4
2019-06-13,13:05:00,DRY,4.95,14.35,14.5,772.50,1146.9
2019-06-13,13:10:00,DRY,4.87,13.67,13.0,772.00,1144.7
2019-06-13,13:15:00,DRY,4.55,14.50,10.0,772.00,1146.0
2019-06-13,13:20:00,DRY,4.47,14.53,11.7,772.33,1147.4
2019-06-13,13:25:00,DRY,4.75,14.95,8.0,772.00,1147.8
2019-06-13,13:30:00,DRY,5.10,14.40,11.0,772.00,1147.0
2019-06-13,13:35:00,DRY,3.70,14.10,27.0,772.00,1143.3
2019-06-13,13:40:00,DRY,3.00,14.00,30.3,772.00,1141.9
2019-06-13,13:45:00,DRY,3.85,13.85,25.0,772.00,1142.0
2019-06-13,13:50:00,DRY,4.50,13.80,24.3,772.00,1138.1
2019-06-13,13:55:00,DRY,3.60,13.95,26.5,772.00,1136.5
2019-06-13,14:00:00,DRY,4.03,13.40,24.3,772.00,1132.6
2019-06-13,14:05:00,DRY,2.85,13.35,20.5,772.00,1127.3
2019-06-13,14:10:00,DRY,3.53,13.33,21.0,772.00,1124.3
2019-06-13,14:15:00,DRY,3.85,13.95,18.5,772.00,1119.5
2019-06-13,14:20:00,DRY,3.90,14.07,22.0,772.00,1115.8
2019-06-13,14:25:00,DRY,3.15,13.95,16.0,772.00,1109.7
2019-06-13,14:30:00,DRY,3.57,14.60,16.3,772.00,1101.4
2019-06-13,14:35:00,DRY,3.50,14.55,14.0,772.00,1098.0
2019-06-13,14:40:00,DRY,3.83,14.33,14.3,772.00,1087.2
2019-06-13,14:45:00,DRY,3.65,13.80,15.0,772.00,1083.6
2019-06-13,14:50:00,DRY,3.23,14.30,13.0,772.00,1073.9
2019-06-13,14:55:00,DRY,3.90,13.85,13.0,772.00,1066.7
2019-06-13,15:00:00,DRY,4.60,14.30,13.7,772.00,1056.3
2019-06-13,15:05:00,DRY,3.85,14.05,16.5,772.00,1047.8
2019-06-13,15:10:00,DRY,3.60,14.63,14.3,772.00,1037.1
2019-06-13,15:15:00,DRY,3.60,14.15,13.0,772.00,1026.5
2019-06-13,15:20:00,DRY,4.30,13.47,9.7,772.00,1014.1
2019-06-13,15:25:00,DRY,4.60,14.25,11.5,772.00,1004.4
2019-06-13,15:30:00,DRY,4.43,13.80,7.0,772.00,990.8
2019-06-13,15:35:00,DRY,4.45,14.05,12.5,772.00,979.5
2019-06-13,15:40:00,DRY,4.83,14.33,12.0,772.00,965.3
2019-06-13,15:45:00,DRY,3.75,14.05,11.0,772.00,952.4
2019-06-13,15:50:00,DRY,4.47,14.03,8.3,772.00,937.3
2019-06-13,15:55:00,DRY,5.15,13.50,9.5,772.00,925.2
2019-06-13,16:00:00,DRY,4.77,13.47,13.7,772.00,911.0
2019-06-13,16:05:00,DRY,4.10,13.95,14.0,772.00,896.7
2019-06-13,16:10:00,DRY,3.50,13.13,17.3,772.00,883.2
2019-06-13,16:15:00,DRY,3.65,13.20,17.0,772.00,866.4
2019-06-13,16:20:00,DRY,4.33,14.23,14.0,772.00,851.6
2019-06-13,16:25:00,DRY,3.85,13.70,14.5,772.00,835.5
2019-06-13,16:30:00,DRY,3.53,14.03,14.7,772.00,818.4
2019-06-13,16:35:00,DRY,2.90,14.00,12.5,772.00,803.0
2019-06-13,16:40:00,DRY,4.37,13.13,10.7,772.00,786.9
2019-06-13,16:45:00,DRY,4.15,13.60,13.5,772.00,770.7
2019-06-13,16:50:00,DRY,4.17,13.53,14.3,772.00,754.1
2019-06-13,16:55:00,DRY,4.45,13.65,11.0,772.00,735.3
2019-06-13,17:00:00,DRY,4.30,12.63,7.0,772.00,717.5
2019-06-13,17:05:00,DRY,4.70,13.10,6.5,772.00,698.9
2019-06-13,17:10:00,DRY,4.23,13.27,7.0,772.00,681.3
2019-06-13,17:15:00,DRY,3.40,13.20,7.0,772.00,663.0
2019-06-13,17:20:00,DRY,4.83,13.13,9.7,772.00,644.2
2019-06-13,17:25:00,DRY,5.10,13.35,11.0,772.00,625.1
2019-06-13,17:30:00,DRY,4.40,13.23,14.0,772.00,605.5
2019-06-13,17:35:00,DRY,4.75,13.55,19.0,772.00,586.9
2019-06-13,17:40:00,DRY,5.53,13.40,25.3,772.00,565.4
2019-06-13,17:45:00,DRY,4.05,13.25,23.5,772.00,547.2
2019-06-13,17:50:00,DRY,4.97,13.33,22.7,772.00,527.3
2019-06-13,17:55:00,DRY,4.80,12.60,22.5,772.00,506.6
2019-06-13,18:00:00,DRY,5.27,12.77,22.7,772.00,486.6
2019-06-13,18:05:00,DRY,3.90,13.00,26.0,772.00,465.4
2019-06-13,18:10:00,DRY,4.67,12.77,26.0,772.00,445.2
2019-06-13,18:15:00,DRY,5.25,12.85,25.5,772.00,425.5
2019-06-13,18:20:00,DRY,4.93,12.60,25.3,772.00,404.9
2019-06-13,18:25:00,DRY,5.00,12.45,25.5,772.00,383.4
2019-06-13,18:30:00,DRY,4.23,12.23,24.7,772.00,362.4
2019-06-13,18:35:00,DRY,5.25,12.40,26.0,772.00,341.6
2019-06-13,18:40:00,DRY,5.60,11.73,28.0,772.00,320.9
2019-06-13,18:45:00,DRY,4.90,11.95,27.5,772.00,300.1
2019-06-13,18:50:00,DRY,4.20,12.00,26.3,772.00,279.6